Flag for Germany Weather past 2 weeks in Bergkamen, North Rhine-Westphalia, Germany

Now
61 °F

Scattered showers. Partly sunny.


Feels Like: 61 °F
Forecast: 51 / 63 °F
Wind: 20 mph from Southwest

Location: Dortmund / Wickede

Current Time: Jul 28, 2015 at 11:34:24 AM

Latest Report: Jul 28, 2015 at 11:20 AM


Visibility: N/A

Pressure: 29.68 "Hg

Humidity: 68%

Dew point: 50 °F

Location of BergkamenLocation

Historic Weather in Bergkamen — Graph

°F

Bergkamen temperature yesterday

Maximum temperature yesterday: 66 °F (at 5:50 PM)
Minimum temperature yesterday: 57 °F (at 4:50 AM)
Average temperature yesterday: 62 °F

Past Weeks' High & Low Weather Summary

 TemperatureHumidityPressure
High86 °F (Jul 17, 1:50 PM)94% (Jul 14, 6:50 AM)30.12 "Hg (Jul 14, 6:50 AM)
Low50 °F (Jul 26, 5:20 AM)27% (Jul 17, 3:20 PM)29.50 "Hg (Jul 25, 7:50 AM)
Average67 °F68%29.90 "Hg
* Reported Jul 13 10:20 AM — Jul 28 10:20 AM, Bergkamen, Weather by CustomWeather, © 2015

Note: Actual official high and low records may vary slightly from our data, if they occured in-between our weather recording intervals... More about our weather records

Advertising

Bergkamen weather history for previous 24 hours

 ConditionsComfort  
Time TempWeatherWind HumidityBarometerVisibility
10:20 AM
Tue, Jul 28
59 °FBroken clouds.17 mph72%29.68 "HgN/A
9:50 AM57 °FScattered showers. Broken clouds.15 mph77%29.68 "HgN/A
9:20 AM57 °FPartly sunny.18 mph72%29.68 "HgN/A
8:50 AM57 °FBroken clouds.16 mph72%29.65 "HgN/A
8:20 AM57 °FPartly sunny.18 mph67%29.65 "HgN/A
7:50 AM57 °FScattered clouds.17 mph67%29.65 "HgN/A
7:20 AM55 °FPartly sunny.18 mph72%29.65 "HgN/A
6:50 AM55 °FPartly sunny.17 mph72%29.65 "HgN/A
6:20 AM55 °FPassing clouds.17 mph72%29.62 "HgN/A
5:50 AM55 °FPassing clouds.16 mph72%29.62 "HgN/A
5:20 AM55 °FClear.17 mph67%29.62 "Hg10 mi
10:50 PM
Mon, Jul 27
61 °FPassing clouds.14 mph77%29.62 "HgN/A
10:20 PM61 °FPassing clouds.16 mph77%29.62 "HgN/A
9:50 PM63 °FScattered showers. Scattered clouds.15 mph73%29.62 "HgN/A
9:20 PM63 °FSprinkles. Scattered clouds.14 mph73%29.59 "HgN/A
8:50 PM64 °FSprinkles. Scattered clouds.14 mph64%29.59 "HgN/A
8:20 PM64 °FScattered clouds.16 mph64%29.59 "HgN/A
7:50 PM66 °FPassing clouds.15 mph56%29.59 "HgN/A
7:20 PM66 °FPassing clouds.17 mph56%29.59 "HgN/A
6:50 PM66 °FBroken clouds.18 mph60%29.59 "HgN/A
6:20 PM64 °FPartly sunny.18 mph68%29.59 "HgN/A
5:50 PM66 °FScattered showers. Partly sunny.14 mph64%29.59 "HgN/A
5:20 PM63 °FSprinkles. Partly sunny.15 mph77%29.59 "Hg5 mi
4:50 PM64 °FPartly sunny.20 mph68%29.56 "HgN/A
4:20 PM64 °FPartly sunny.20 mph68%29.56 "HgN/A
3:50 PM64 °FPartly sunny.20 mph73%29.56 "HgN/A
3:20 PM63 °FScattered showers. Partly sunny.18 mph77%29.56 "HgN/A
2:50 PM63 °FLight rain. Partly sunny.17 mph77%29.56 "HgN/A
2:20 PM61 °FSprinkles. Partly sunny.20 mph83%29.56 "HgN/A
1:50 PM61 °FBroken clouds.21 mph83%29.56 "HgN/A
1:20 PM61 °FPartly sunny.18 mph83%29.56 "HgN/A
12:50 PM63 °FPartly sunny.20 mph77%29.56 "HgN/A
12:20 PM61 °FScattered clouds.16 mph77%29.56 "HgN/A
11:50 AM61 °FSprinkles. Scattered clouds.17 mph83%29.56 "HgN/A
11:20 AM63 °FOvercast.17 mph73%29.53 "HgN/A
Weather by CustomWeather, © 2015

See weather overviewHow to use our weather pages